Weather History for KTSP - October, 2012

Change the Weather History Date:

Sunday, October 7, 2012

  Actual Average Record
Temperature  
Mean Temperature 58 °F -  
Max Temperature 71 °F 75 °F 82 °F (2014)
Min Temperature 46 °F 46 °F 35 °F (2011)
Degree Days  
Heating Degree Days 6    
Growing Degree Days 8 (Base 50)    
Moisture  
Dew Point 46 °F    
Average Humidity 69    
Maximum Humidity 100    
Minimum Humidity 41    
Precipitation  
Precipitation 0.00 in - - ()
Sea Level Pressure  
Sea Level Pressure 30.05 in    
Wind  
Wind Speed 8 mph (WNW)    
Max Wind Speed 16 mph    
Max Gust Speed 21 mph    
Visibility 8 miles    
Events      
Averages and records for this station are not official NWS values.
T = Trace of Precipitation, MM = Missing Value Source: NWS Daily Summary

Daily Weather History Graph

Daily Weather History Graph

Search for Another Location

Airport or City:

Trip Planner

Search our weather history database for the weather conditions in past years. The results will help you decide how hot, cold, wet, or windy it might be!

Date:

Astronomy

Oct. 07, 2012 Rise Set
Actual Time 6:53 AM PDT 6:28 PM PDT
Civil Twilight 6:28 AM PDT 6:53 PM PDT
Nautical Twilight 5:58 AM PDT 7:23 PM PDT
Astronomical Twilight 5:29 AM PDT 7:52 PM PDT
Moon 11:53 PM PDT (10/7) 1:25 PM PDT (10/7)
Length of Visible Light 12h 25m
Length of Day
11h 34m
Waning Gibbous, 55% of the Moon is Illuminated
Oct 7
Waning Gibbous
Oct 8
Last Quarter
Oct 15
New
Oct 21
First Quarter
Oct 29
Full

Hourly Weather History & Observations

Time (PDT) Temp. Windchill Dew Point Humidity Pressure Visibility Wind Dir Wind Speed Gust Speed Precip Events Conditions
12:15 AM 51.8 °F - 46.4 °F 82% 30.04 in 9.0 mi NW 6.9 mph - N/A   Clear
12:35 AM 51.8 °F - 44.6 °F 76% 30.04 in 9.0 mi NNW 8.1 mph - N/A   Clear
12:55 AM 50.0 °F - 46.4 °F 87% 30.05 in 9.0 mi NW 6.9 mph - N/A   Clear
1:15 AM 53.6 °F - 46.4 °F 77% 30.05 in 9.0 mi NW 8.1 mph - N/A   Clear
1:35 AM 53.6 °F - 46.4 °F 77% 30.05 in 9.0 mi WNW 9.2 mph - N/A   Clear
1:55 AM 53.6 °F - 46.4 °F 77% 30.05 in 9.0 mi WNW 9.2 mph - N/A   Clear
2:15 AM 51.8 °F - 46.4 °F 82% 30.05 in 8.0 mi West 4.6 mph - N/A   Clear
2:35 AM 50.0 °F - 46.4 °F 87% 30.04 in 8.0 mi West 5.8 mph - N/A   Clear
2:55 AM 50.0 °F - 46.4 °F 87% 30.04 in 8.0 mi West 6.9 mph - N/A   Clear
3:15 AM 50.0 °F - 46.4 °F 87% 30.04 in 7.0 mi West 5.8 mph - N/A   Clear
3:35 AM 50.0 °F - 46.4 °F 87% 30.04 in 8.0 mi West 6.9 mph - N/A   Clear
3:55 AM 50.0 °F - 46.4 °F 87% 30.04 in 8.0 mi NW 8.1 mph - N/A   Clear
4:15 AM 50.0 °F - 46.4 °F 87% 30.04 in 8.0 mi WNW 8.1 mph - N/A   Clear
4:55 AM 50.0 °F - 46.4 °F 87% 30.04 in 8.0 mi WNW 8.1 mph - N/A   Clear
5:15 AM 50.0 °F - 46.4 °F 87% 30.04 in 7.0 mi WNW 8.1 mph - N/A   Clear
5:35 AM 48.2 °F - 44.6 °F 87% 30.04 in 7.0 mi WNW 5.8 mph - N/A   Clear
5:55 AM 48.2 °F - 46.4 °F 93% 30.04 in 7.0 mi NW 3.5 mph - N/A   Partly Cloudy
6:35 AM 48.2 °F - 46.4 °F 93% 30.05 in 6.0 mi Calm Calm - N/A   Scattered Clouds
6:55 AM 46.4 °F 45.2 °F 44.6 °F 93% 30.06 in 5.0 mi West 3.5 mph - N/A   Mostly Cloudy
7:15 AM 46.4 °F - 46.4 °F 100% 30.06 in 5.0 mi Calm Calm - N/A   Scattered Clouds
7:35 AM 48.2 °F - 46.4 °F 93% 30.07 in 5.0 mi Calm Calm - N/A   Clear
7:55 AM 50.0 °F - 48.2 °F 94% 30.07 in 5.0 mi Calm Calm - N/A   Clear
8:15 AM 53.6 °F - 48.2 °F 82% 30.07 in 5.0 mi West 3.5 mph - N/A   Haze
8:35 AM 57.2 °F - 50.0 °F 77% 30.07 in 6.0 mi NW 8.1 mph - N/A   Haze
8:55 AM 57.2 °F - 50.0 °F 77% 30.08 in 6.0 mi WNW 8.1 mph - N/A   Haze
9:15 AM 59.0 °F - 48.2 °F 67% 30.08 in 7.0 mi WNW 9.2 mph - N/A   Clear
9:55 AM 62.6 °F - 48.2 °F 59% 30.07 in 8.0 mi NW 10.4 mph - N/A   Clear
10:15 AM 62.6 °F - 48.2 °F 59% 30.07 in 8.0 mi WNW 9.2 mph - N/A   Clear
10:35 AM 64.4 °F - 48.2 °F 56% 30.07 in 8.0 mi WNW 8.1 mph - N/A   Clear
10:55 AM 64.4 °F - 48.2 °F 56% 30.06 in 8.0 mi NW 9.2 mph - N/A   Clear
11:15 AM 66.2 °F - 46.4 °F 49% 30.06 in 5.0 mi NW 9.2 mph - N/A   Haze
11:35 AM 66.2 °F - 46.4 °F 49% 30.05 in 7.0 mi NW 9.2 mph - N/A   Clear
11:55 AM 68.0 °F - 46.4 °F 46% 30.05 in 7.0 mi NW 10.4 mph - N/A   Clear
12:15 PM 68.0 °F - 46.4 °F 46% 30.05 in 8.0 mi NW 10.4 mph - N/A   Clear
12:35 PM 68.0 °F - 46.4 °F 46% 30.04 in 8.0 mi NW 12.7 mph - N/A   Clear
12:55 PM 68.0 °F - 46.4 °F 46% 30.04 in 7.0 mi NW 11.5 mph - N/A   Clear
1:15 PM 69.8 °F - 46.4 °F 43% 30.03 in 9.0 mi NW 11.5 mph - N/A   Clear
1:35 PM 71.6 °F - 46.4 °F 41% 30.02 in 8.0 mi NW 13.8 mph - N/A   Clear
1:55 PM 69.8 °F - 46.4 °F 43% 30.01 in 8.0 mi NW 13.8 mph 18.4 mph N/A   Clear
2:15 PM 69.8 °F - 46.4 °F 43% 30.01 in 8.0 mi NW 13.8 mph 20.7 mph N/A   Clear
2:35 PM 68.0 °F - 46.4 °F 46% 30.02 in 8.0 mi NW 16.1 mph 20.7 mph N/A   Clear
2:55 PM 68.0 °F - 46.4 °F 46% 30.02 in 9.0 mi NW 16.1 mph - N/A   Clear
3:15 PM 68.0 °F - 46.4 °F 46% 30.02 in 9.0 mi NW 13.8 mph 18.4 mph N/A   Clear
3:35 PM 68.0 °F - 46.4 °F 46% 30.02 in 9.0 mi NW 15.0 mph - N/A   Clear
3:55 PM 68.0 °F - 48.2 °F 49% 30.01 in 8.0 mi NW 13.8 mph - N/A   Clear
4:15 PM 66.2 °F - 48.2 °F 52% 30.01 in 9.0 mi NW 15.0 mph - N/A   Clear
4:35 PM 66.2 °F - 48.2 °F 52% 30.01 in 8.0 mi NW 11.5 mph 18.4 mph N/A   Clear
4:55 PM 66.2 °F - 48.2 °F 52% 30.02 in 9.0 mi NW 13.8 mph - N/A   Clear
5:15 PM 64.4 °F - 48.2 °F 56% 30.02 in 9.0 mi NW 13.8 mph - N/A   Clear
5:35 PM 64.4 °F - 46.4 °F 52% 30.02 in 9.0 mi WNW 10.4 mph - N/A   Clear
5:55 PM 62.6 °F - 46.4 °F 55% 30.03 in 9.0 mi NW 12.7 mph - N/A   Clear
6:15 PM 60.8 °F - 46.4 °F 59% 30.03 in 8.0 mi NW 9.2 mph - N/A   Clear
6:35 PM 59.0 °F - 46.4 °F 63% 30.04 in 9.0 mi NW 9.2 mph - N/A   Clear
6:55 PM 57.2 °F - 46.4 °F 67% 30.04 in 10.0 mi NW 8.1 mph - N/A   Clear
7:15 PM 57.2 °F - 46.4 °F 67% 30.04 in 10.0 mi NW 8.1 mph - N/A   Clear
7:35 PM 55.4 °F - 46.4 °F 72% 30.05 in 10.0 mi NW 5.8 mph - N/A   Clear
7:55 PM 55.4 °F - 46.4 °F 72% 30.05 in 10.0 mi NW 5.8 mph - N/A   Clear
8:15 PM 55.4 °F - 46.4 °F 72% 30.05 in 10.0 mi WNW 5.8 mph - N/A   Clear
8:35 PM 53.6 °F - 46.4 °F 77% 30.05 in 10.0 mi NNW 3.5 mph - N/A   Clear
8:55 PM 53.6 °F - 46.4 °F 77% 30.06 in 10.0 mi WNW 5.8 mph - N/A   Clear
9:15 PM 53.6 °F - 46.4 °F 77% 30.06 in 10.0 mi West 8.1 mph - N/A   Clear
9:35 PM 53.6 °F - 44.6 °F 72% 30.07 in 10.0 mi WNW 6.9 mph - N/A   Clear
9:55 PM 53.6 °F - 44.6 °F 72% 30.07 in 10.0 mi West 6.9 mph - N/A   Clear
10:15 PM 51.8 °F - 42.8 °F 71% 30.07 in 10.0 mi West 6.9 mph - N/A   Clear
10:35 PM 50.0 °F - 44.6 °F 82% 30.06 in 10.0 mi West 6.9 mph - N/A   Clear
10:55 PM 50.0 °F - 44.6 °F 82% 30.06 in 10.0 mi West 5.8 mph - N/A   Clear
11:15 PM 50.0 °F - 44.6 °F 82% 30.06 in 9.0 mi West 4.6 mph - N/A   Clear
11:35 PM 50.0 °F - 44.6 °F 82% 30.05 in 10.0 mi Calm Calm - N/A   Clear
11:55 PM 46.4 °F - 41.0 °F 81% 30.05 in 10.0 mi Calm Calm - N/A   Clear